Aberdeen / Amory, MS

10:21 PM CDT on September 25, 2017 (GMT -0500)
Aberdeen / Amory

Weather History for KM40 - June, 2012

Change the Weather History Date:

Saturday, June 23, 2012

  Actual Average (KCBM) Record (KCBM)
Temperature  
Mean Temperature 83 °F -  
Max Temperature 98 °F 86 °F 98 °F (1998)
Min Temperature 68 °F 68 °F 62 °F (2003)
Cooling Degree Days 18    
Growing Degree Days 33 (Base 50)    
Moisture  
Dew Point 66 °F    
Average Humidity 55    
Maximum Humidity 57    
Minimum Humidity 53    
Precipitation  
Precipitation 0.00 in - - ()
Sea Level Pressure  
Sea Level Pressure 29.92 in    
Wind  
Wind Speed 1 mph ()    
Max Wind Speed 9 mph    
Max Gust Speed -    
Visibility 8.5 miles    
Events      
Averages and records for this station are not official NWS values.
T = Trace of Precipitation, MM = Missing Value Source: Averaged Metar Reports

Daily Weather History Graph

Daily Weather History Graph

Search for Another Location

Airport or City:

Trip Planner

Search our weather history database for the weather conditions in past years. The results will help you decide how hot, cold, wet, or windy it might be!

Date:

Astronomy

Jun. 23, 2012 Rise Set
Actual Time 5:44 AM CDT 8:08 PM CDT
Civil Twilight 5:14 AM CDT 8:37 PM CDT
Nautical Twilight 4:39 AM CDT 9:13 PM CDT
Astronomical Twilight 3:59 AM CDT 9:52 PM CDT
Moon 9:35 AM CDT (6/23) 10:49 PM CDT (6/23)
Length of Visible Light 15h 22m
Length of Day
14h 24m
Waxing Crescent, 16% of the Moon is Illuminated
Jun 23
Waxing Crescent
Jun 26
First Quarter
Jul 3
Full
Jul 10
Last Quarter
Jul 18
New

Hourly Weather History & Observations

Time (CDT) Temp. Heat Index Dew Point Humidity Pressure Visibility Wind Dir Wind Speed Gust Speed Precip Events Conditions
12:15 AM 71.6 °F - 53.6 °F 53% 29.92 in 6.0 mi Calm Calm - N/A   Haze
12:35 AM 71.6 °F - 53.6 °F 53% 29.92 in 6.0 mi Calm Calm - N/A   Haze
1:15 AM 71.6 °F - 53.6 °F 53% 29.91 in 7.0 mi Calm Calm - N/A   Clear
1:35 AM 71.6 °F - 55.4 °F 57% 29.91 in 8.0 mi Calm Calm - N/A   Clear
1:55 AM 71.6 °F - 53.6 °F 53% 29.91 in 6.0 mi Calm Calm - N/A   Haze
2:15 AM 71.6 °F - 53.6 °F 53% 29.91 in 7.0 mi Calm Calm - N/A   Clear
2:35 AM 71.6 °F - 53.6 °F 53% 29.90 in 7.0 mi Calm Calm - N/A   Clear
3:15 AM 69.8 °F - 53.6 °F 56% 29.90 in 6.0 mi Calm Calm - N/A   Haze
3:55 AM 69.8 °F - 53.6 °F 56% 29.90 in 6.0 mi Calm Calm - N/A   Haze
4:15 AM 69.8 °F - 51.8 °F 53% 29.90 in 4.0 mi Calm Calm - N/A   Haze
4:35 AM 69.8 °F - 51.8 °F 53% 29.90 in 4.0 mi Calm Calm - N/A   Haze
4:55 AM 69.8 °F - 51.8 °F 53% 29.89 in 3.0 mi Calm Calm - N/A   Haze
5:15 AM 68.0 °F - 51.8 °F 56% 29.89 in 4.0 mi Calm Calm - N/A   Haze
5:35 AM 68.0 °F - 51.8 °F 56% 29.90 in 2.5 mi Calm Calm - N/A   Haze
5:55 AM 68.0 °F - 51.8 °F 56% 29.90 in 4.0 mi Calm Calm - N/A   Haze
6:15 AM 68.0 °F - 51.8 °F 56% 29.91 in 1.8 mi Calm Calm - N/A   Haze
6:35 AM 69.8 °F - 51.8 °F 53% 29.92 in 3.0 mi NNE 3.5 mph - N/A   Haze
6:55 AM 69.8 °F - 53.6 °F 56% 29.93 in 5.0 mi Calm Calm - N/A   Haze
7:15 AM 71.6 °F - 55.4 °F 57% 29.93 in 7.0 mi Calm Calm - N/A   Clear
7:35 AM 73.4 °F - 55.4 °F 53% 29.93 in 8.0 mi Calm Calm - N/A   Clear
7:55 AM 75.2 °F - 57.2 °F 53% 29.94 in 9.0 mi Calm Calm - N/A   Clear
8:15 AM 78.8 °F - 60.8 °F 54% 29.94 in 10.0 mi NNE 4.6 mph - N/A   Light Drizzle
8:35 AM 80.6 °F 81.8 °F 62.6 °F 54% 29.94 in 10.0 mi Calm Calm - N/A   Clear
8:55 AM 82.4 °F 83.9 °F 64.4 °F 54% 29.94 in 10.0 mi Calm Calm - N/A   Clear
9:15 AM 84.2 °F 86.6 °F 66.2 °F 55% 29.94 in 10.0 mi Calm Calm - N/A   Clear
9:35 AM 87.8 °F 92.6 °F 69.8 °F 55% 29.95 in 10.0 mi Calm Calm - N/A   Clear
9:55 AM 89.6 °F 96.2 °F 71.6 °F 55% 29.95 in 10.0 mi Calm Calm - N/A   Clear
10:15 AM 89.6 °F 96.2 °F 71.6 °F 55% 29.95 in 9.0 mi East 4.6 mph - N/A   Light Drizzle
10:35 AM 91.4 °F 100.1 °F 73.4 °F 55% 29.95 in 9.0 mi Calm Calm - N/A   Clear
10:55 AM 93.2 °F 105.0 °F 75.2 °F 56% 29.95 in 10.0 mi Calm Calm - N/A   Clear
11:15 AM 93.2 °F 105.0 °F 75.2 °F 56% 29.95 in 9.0 mi Calm Calm - N/A   Clear
11:35 AM 95.0 °F 109.7 °F 77.0 °F 56% 29.94 in 10.0 mi Calm Calm - N/A   Clear
11:55 AM 96.8 °F 114.8 °F 78.8 °F 56% 29.94 in 10.0 mi West 3.5 mph - N/A   Partly Cloudy
12:15 PM 98.6 °F 117.2 °F 78.8 °F 53% 29.94 in 10.0 mi Calm Calm - N/A   Clear
12:35 PM 98.6 °F 117.2 °F 78.8 °F 53% 29.94 in 10.0 mi NE 4.6 mph - N/A   Partly Cloudy
12:55 PM 98.6 °F 117.2 °F 78.8 °F 53% 29.93 in 10.0 mi SSE 3.5 mph - N/A   Partly Cloudy
1:15 PM 98.6 °F 120.3 °F 80.6 °F 56% 29.93 in 10.0 mi North 6.9 mph - N/A   Partly Cloudy
1:35 PM 98.6 °F 117.2 °F 78.8 °F 53% 29.93 in 10.0 mi North 3.5 mph - N/A   Clear
1:55 PM 96.8 °F 114.8 °F 78.8 °F 56% 29.92 in 9.0 mi NNE 6.9 mph - N/A   Partly Cloudy
2:15 PM 98.6 °F 120.3 °F 80.6 °F 56% 29.92 in 10.0 mi North 5.8 mph - N/A   Partly Cloudy
2:35 PM 96.8 °F 114.8 °F 78.8 °F 56% 29.92 in 10.0 mi North 5.8 mph - N/A   Partly Cloudy
2:55 PM 98.6 °F 120.3 °F 80.6 °F 56% 29.91 in 10.0 mi NW 6.9 mph - N/A   Partly Cloudy
3:15 PM 98.6 °F 120.3 °F 80.6 °F 56% 29.91 in 10.0 mi North 5.8 mph - N/A   Partly Cloudy
3:35 PM 98.6 °F 120.3 °F 80.6 °F 56% 29.91 in 10.0 mi North 6.9 mph - N/A   Clear
3:55 PM 98.6 °F 120.3 °F 80.6 °F 56% 29.91 in 10.0 mi NNE 4.6 mph - N/A   Clear
4:15 PM 98.6 °F 120.3 °F 80.6 °F 56% 29.90 in 10.0 mi Calm Calm - N/A   Clear
4:35 PM 98.6 °F 117.2 °F 78.8 °F 53% 29.90 in 10.0 mi North 9.2 mph - N/A   Clear
4:55 PM 98.6 °F 117.2 °F 78.8 °F 53% 29.90 in 10.0 mi NNE 5.8 mph - N/A   Clear
5:15 PM 96.8 °F 114.8 °F 78.8 °F 56% 29.90 in 10.0 mi North 6.9 mph - N/A   Clear
5:35 PM 96.8 °F 114.8 °F 78.8 °F 56% 29.90 in 10.0 mi North 8.1 mph - N/A   Clear
5:55 PM 96.8 °F 114.8 °F 78.8 °F 56% 29.90 in 10.0 mi NNE 8.1 mph - N/A   Clear
6:15 PM 95.0 °F 109.7 °F 77.0 °F 56% 29.90 in 10.0 mi NNE 5.8 mph - N/A   Clear
6:35 PM 95.0 °F 107.4 °F 75.2 °F 53% 29.90 in 10.0 mi NE 5.8 mph - N/A   Clear
6:55 PM 93.2 °F 105.0 °F 75.2 °F 56% 29.90 in 10.0 mi NNE 3.5 mph - N/A   Clear
7:15 PM 91.4 °F 100.1 °F 73.4 °F 55% 29.90 in 10.0 mi NNE 4.6 mph - N/A   Clear
7:35 PM 89.6 °F 96.2 °F 71.6 °F 55% 29.90 in 10.0 mi Calm Calm - N/A   Clear
8:15 PM 84.2 °F 86.6 °F 66.2 °F 55% 29.90 in 10.0 mi Calm Calm - N/A   Clear
8:35 PM 80.6 °F 81.8 °F 62.6 °F 54% 29.90 in 10.0 mi Calm Calm - N/A   Clear
8:55 PM 78.8 °F - 60.8 °F 54% 29.90 in 10.0 mi Calm Calm - N/A   Clear
9:15 PM 77.0 °F - 60.8 °F 57% 29.91 in 10.0 mi Calm Calm - N/A   Clear
9:35 PM 77.0 °F - 59.0 °F 54% 29.91 in 10.0 mi Calm Calm - N/A   Clear
10:15 PM 75.2 °F - 57.2 °F 53% 29.93 in 10.0 mi Calm Calm - N/A   Clear
10:35 PM 73.4 °F - 57.2 °F 57% 29.93 in 10.0 mi Calm Calm - N/A   Clear
10:55 PM 73.4 °F - 57.2 °F 57% 29.93 in 10.0 mi North 4.6 mph - N/A   Clear
11:15 PM 73.4 °F - 57.2 °F 57% 29.93 in 10.0 mi North 5.8 mph - N/A   Clear
11:35 PM 75.2 °F - 57.2 °F 53% 29.93 in 10.0 mi NNE 4.6 mph - N/A   Clear
11:55 PM 73.4 °F - 55.4 °F 53% 29.93 in 10.0 mi Calm Calm - N/A   Clear